owner,sensor,date,latitude,longitude,vertical_datum,sea_water_practical_salinity,qcFlag 
ENP,ioos.station.NOAA.NDBC:DKKF1:1,2017-09-01T00:00:00Z,25.1800,-80.4900,1.5,38.53,1111122 
ENP,ioos.station.NOAA.NDBC:DKKF1:1,2017-09-01T03:00:00Z,25.1800,-80.4900,1.5,38.52,1111122 
ENP,ioos.station.NOAA.NDBC:DKKF1:1,2017-09-01T06:00:00Z,25.1800,-80.4900,1.5,38.52,1111122 
ENP,ioos.station.NOAA.NDBC:DKKF1:1,2017-09-01T07:00:00Z,25.1800,-80.4900,1.5,38.54,1111122 
ENP,ioos.station.NOAA.NDBC:DKKF1:1,2017-09-01T08:00:00Z,25.1800,-80.4900,1.5,38.56,1111122 
ENP,ioos.station.NOAA.NDBC:DKKF1:1,2017-09-01T10:00:00Z,25.1800,-80.4900,1.5,38.55,1111122 
ENP,ioos.station.NOAA.NDBC:DKKF1:1,2017-09-01T11:00:00Z,25.1800,-80.4900,1.5,38.56,1111122 
ENP,ioos.station.NOAA.NDBC:DKKF1:1,2017-09-01T12:00:00Z,25.1800,-80.4900,1.5,38.6,11111222 
ENP,ioos.station.NOAA.NDBC:DKKF1:1,2017-09-01T13:00:00Z,25.1800,-80.4900,1.5,38.54,1111122 
ENP,ioos.station.NOAA.NDBC:DKKF1:1,2017-09-01T14:00:00Z,25.1800,-80.4900,1.5,38.54,1111122 
ENP,ioos.station.NOAA.NDBC:DKKF1:1,2017-09-01T15:00:00Z,25.1800,-80.4900,1.5,38.56,1111122 
ENP,ioos.station.NOAA.NDBC:DKKF1:1,2017-09-01T16:00:00Z,25.1800,-80.4900,1.5,38.6,11111222 
ENP,ioos.station.NOAA.NDBC:DKKF1:1,2017-09-01T17:00:00Z,25.1800,-80.4900,1.5,38.64,1111122 
ENP,ioos.station.NOAA.NDBC:DKKF1:1,2017-09-01T18:00:00Z,25.1800,-80.4900,1.5,38.66,1111122 
ENP,ioos.station.NOAA.NDBC:DKKF1:1,2017-09-01T19:00:00Z,25.1800,-80.4900,1.5,38.69,1111122 
ENP,ioos.station.NOAA.NDBC:DKKF1:1,2017-09-01T20:00:00Z,25.1800,-80.4900,1.5,38.72,1111122 
ENP,ioos.station.NOAA.NDBC:DKKF1:1,2017-09-01T21:00:00Z,25.1800,-80.4900,1.5,38.71,1111122 
ENP,ioos.station.NOAA.NDBC:DKKF1:1,2017-09-01T22:00:00Z,25.1800,-80.4900,1.5,38.7,11111222 
ENP,ioos.station.NOAA.NDBC:DKKF1:1,2017-09-01T23:00:00Z,25.1800,-80.4900,1.5,38.65,1111122 
ENP,ioos.station.NOAA.NDBC:DKKF1:1,2017-09-02T00:00:00Z,25.1800,-80.4900,1.5,38.6,1111122 
ENP,ioos.station.NOAA.NDBC:DKKF1:1,2017-09-02T03:00:00Z,25.1800,-80.4900,1.5,38.57,1111122 
ENP,ioos.station.NOAA.NDBC:DKKF1:1,2017-09-02T06:00:00Z,25.1800,-80.4900,1.5,38.55,1111122 
ENP,ioos.station.NOAA.NDBC:DKKF1:1,2017-09-02T07:00:00Z,25.1800,-80.4900,1.5,38.56,1111122 
ENP,ioos.station.NOAA.NDBC:DKKF1:1,2017-09-02T08:00:00Z,25.1800,-80.4900,1.5,38.54,1111122 
ENP,ioos.station.NOAA.NDBC:DKKF1:1,2017-09-02T10:00:00Z,25.1800,-80.4900,1.5,38.54,1111122 
ENP,ioos.station.NOAA.NDBC:DKKF1:1,2017-09-02T11:00:00Z,25.1800,-80.4900,1.5,38.81,1111122 
ENP,ioos.station.NOAA.NDBC:DKKF1:1,2017-09-02T12:00:00Z,25.1800,-80.4900,1.5,38.66,1111122 
ENP,ioos.station.NOAA.NDBC:DKKF1:1,2017-09-02T13:00:00Z,25.1800,-80.4900,1.5,38.64,1111122 
ENP,ioos.station.NOAA.NDBC:DKKF1:1,2017-09-02T14:00:00Z,25.1800,-80.4900,1.5,38.51,1111122 
ENP,ioos.station.NOAA.NDBC:DKKF1:1,2017-09-02T15:00:00Z,25.1800,-80.4900,1.5,38.51,1111122 
ENP,ioos.station.NOAA.NDBC:DKKF1:1,2017-09-02T16:00:00Z,25.1800,-80.4900,1.5,38.54,1111122 
ENP,ioos.station.NOAA.NDBC:DKKF1:1,2017-09-02T17:00:00Z,25.1800,-80.4900,1.5,38.55,1111122 
ENP,ioos.station.NOAA.NDBC:DKKF1:1,2017-09-02T18:00:00Z,25.1800,-80.4900,1.5,38.56,1111122 
ENP,ioos.station.NOAA.NDBC:DKKF1:1,2017-09-02T19:00:00Z,25.1800,-80.4900,1.5,38.57,1111122 
ENP,ioos.station.NOAA.NDBC:DKKF1:1,2017-09-02T20:00:00Z,25.1800,-80.4900,1.5,38.57,1111122 
ENP,ioos.station.NOAA.NDBC:DKKF1:1,2017-09-02T21:00:00Z,25.1800,-80.4900,1.5,38.54,1111122 
ENP,ioos.station.NOAA.NDBC:DKKF1:1,2017-09-02T22:00:00Z,25.1800,-80.4900,1.5,38.48,1111122 
ENP,ioos.station.NOAA.NDBC:DKKF1:1,2017-09-02T23:00:00Z,25.1800,-80.4900,1.5,38.45,1111122 
ENP,ioos.station.NOAA.NDBC:DKKF1:1,2017-09-03T00:00:00Z,25.1800,-80.4900,1.5,38.46,1111122 
ENP,ioos.station.NOAA.NDBC:DKKF1:1,2017-09-03T03:00:00Z,25.1800,-80.4900,1.5,38.48,1111122 
ENP,ioos.station.NOAA.NDBC:DKKF1:1,2017-09-03T06:00:00Z,25.1800,-80.4900,1.5,38.48,1111122 
ENP,ioos.station.NOAA.NDBC:DKKF1:1,2017-09-03T07:00:00Z,25.1800,-80.4900,1.5,38.48,1111122 
ENP,ioos.station.NOAA.NDBC:DKKF1:1,2017-09-03T08:00:00Z,25.1800,-80.4900,1.5,38.48,1111122 
ENP,ioos.station.NOAA.NDBC:DKKF1:1,2017-09-03T11:00:00Z,25.1800,-80.4900,1.5,38.48,1111122 
ENP,ioos.station.NOAA.NDBC:DKKF1:1,2017-09-03T12:00:00Z,25.1800,-80.4900,1.5,38.5,1111122 
ENP,ioos.station.NOAA.NDBC:DKKF1:1,2017-09-03T13:00:00Z,25.1800,-80.4900,1.5,38.51,1111122 
ENP,ioos.station.NOAA.NDBC:DKKF1:1,2017-09-03T14:00:00Z,25.1800,-80.4900,1.5,38.51,1111122 
ENP,ioos.station.NOAA.NDBC:DKKF1:1,2017-09-03T15:00:00Z,25.1800,-80.4900,1.5,38.52,1111122 
ENP,ioos.station.NOAA.NDBC:DKKF1:1,2017-09-03T16:00:00Z,25.1800,-80.4900,1.5,38.58,1111122 
ENP,ioos.station.NOAA.NDBC:DKKF1:1,2017-09-03T17:00:00Z,25.1800,-80.4900,1.5,38.59,1111122 
ENP,ioos.station.NOAA.NDBC:DKKF1:1,2017-09-03T18:00:00Z,25.1800,-80.4900,1.5,38.7,11111222 
ENP,ioos.station.NOAA.NDBC:DKKF1:1,2017-09-03T19:00:00Z,25.1800,-80.4900,1.5,38.67,1111122 
ENP,ioos.station.NOAA.NDBC:DKKF1:1,2017-09-03T20:00:00Z,25.1800,-80.4900,1.5,38.77,1111122 
ENP,ioos.station.NOAA.NDBC:DKKF1:1,2017-09-03T21:00:00Z,25.1800,-80.4900,1.5,38.76,1111122 
ENP,ioos.station.NOAA.NDBC:DKKF1:1,2017-09-03T22:00:00Z,25.1800,-80.4900,1.5,38.77,1111122 
ENP,ioos.station.NOAA.NDBC:DKKF1:1,2017-09-03T23:00:00Z,25.1800,-80.4900,1.5,38.78,1111122 
ENP,ioos.station.NOAA.NDBC:DKKF1:1,2017-09-04T00:00:00Z,25.1800,-80.4900,1.5,38.78,1111122 
ENP,ioos.station.NOAA.NDBC:DKKF1:1,2017-09-04T03:00:00Z,25.1800,-80.4900,1.5,38.82,1111122 
ENP,ioos.station.NOAA.NDBC:DKKF1:1,2017-09-04T06:00:00Z,25.1800,-80.4900,1.5,38.8,1111122 
ENP,ioos.station.NOAA.NDBC:DKKF1:1,2017-09-04T07:00:00Z,25.1800,-80.4900,1.5,38.76,1111122 
ENP,ioos.station.NOAA.NDBC:DKKF1:1,2017-09-04T08:00:00Z,25.1800,-80.4900,1.5,38.8,11111222 
ENP,ioos.station.NOAA.NDBC:DKKF1:1,2017-09-04T11:00:00Z,25.1800,-80.4900,1.5,38.75,1111122 
ENP,ioos.station.NOAA.NDBC:DKKF1:1,2017-09-04T12:00:00Z,25.1800,-80.4900,1.5,38.8,11111222 
ENP,ioos.station.NOAA.NDBC:DKKF1:1,2017-09-04T13:00:00Z,25.1800,-80.4900,1.5,38.74,1111122 
ENP,ioos.station.NOAA.NDBC:DKKF1:1,2017-09-04T14:00:00Z,25.1800,-80.4900,1.5,38.74,1111122 
ENP,ioos.station.NOAA.NDBC:DKKF1:1,2017-09-04T15:00:00Z,25.1800,-80.4900,1.5,38.74,1111122 
ENP,ioos.station.NOAA.NDBC:DKKF1:1,2017-09-04T16:00:00Z,25.1800,-80.4900,1.5,38.76,1111122 
ENP,ioos.station.NOAA.NDBC:DKKF1:1,2017-09-04T17:00:00Z,25.1800,-80.4900,1.5,38.79,1111122 
ENP,ioos.station.NOAA.NDBC:DKKF1:1,2017-09-04T18:00:00Z,25.1800,-80.4900,1.5,38.8,11111222 
ENP,ioos.station.NOAA.NDBC:DKKF1:1,2017-09-04T19:00:00Z,25.1800,-80.4900,1.5,38.84,1111122 
ENP,ioos.station.NOAA.NDBC:DKKF1:1,2017-09-04T20:00:00Z,25.1800,-80.4900,1.5,38.87,1111122 
ENP,ioos.station.NOAA.NDBC:DKKF1:1,2017-09-04T21:00:00Z,25.1800,-80.4900,1.5,38.86,1111122 
ENP,ioos.station.NOAA.NDBC:DKKF1:1,2017-09-04T22:00:00Z,25.1800,-80.4900,1.5,38.8,11111222 
ENP,ioos.station.NOAA.NDBC:DKKF1:1,2017-09-04T23:00:00Z,25.1800,-80.4900,1.5,38.83,1111122 
ENP,ioos.station.NOAA.NDBC:DKKF1:1,2017-09-05T00:00:00Z,25.1800,-80.4900,1.5,38.9,11111222 
ENP,ioos.station.NOAA.NDBC:DKKF1:1,2017-09-05T03:00:00Z,25.1800,-80.4900,1.5,38.81,1111122 
ENP,ioos.station.NOAA.NDBC:DKKF1:1,2017-09-05T06:00:00Z,25.1800,-80.4900,1.5,38.72,1111122 
ENP,ioos.station.NOAA.NDBC:DKKF1:1,2017-09-05T07:00:00Z,25.1800,-80.4900,1.5,38.7,1111122 
ENP,ioos.station.NOAA.NDBC:DKKF1:1,2017-09-05T08:00:00Z,25.1800,-80.4900,1.5,38.7,11111222 
ENP,ioos.station.NOAA.NDBC:DKKF1:1,2017-09-05T10:00:00Z,25.1800,-80.4900,1.5,38.74,1111122 
ENP,ioos.station.NOAA.NDBC:DKKF1:1,2017-09-05T11:00:00Z,25.1800,-80.4900,1.5,38.74,1111122 
ENP,ioos.station.NOAA.NDBC:DKKF1:1,2017-09-05T12:00:00Z,25.1800,-80.4900,1.5,38.8,11111222 
ENP,ioos.station.NOAA.NDBC:DKKF1:1,2017-09-05T13:00:00Z,25.1800,-80.4900,1.5,38.73,1111122 
ENP,ioos.station.NOAA.NDBC:DKKF1:1,2017-09-05T14:00:00Z,25.1800,-80.4900,1.5,38.73,1111122 
ENP,ioos.station.NOAA.NDBC:DKKF1:1,2017-09-05T15:00:00Z,25.1800,-80.4900,1.5,38.75,1111122 
ENP,ioos.station.NOAA.NDBC:DKKF1:1,2017-09-05T16:00:00Z,25.1800,-80.4900,1.5,38.8,11111222 
ENP,ioos.station.NOAA.NDBC:DKKF1:1,2017-09-05T17:00:00Z,25.1800,-80.4900,1.5,38.81,1111122 
ENP,ioos.station.NOAA.NDBC:DKKF1:1,2017-09-05T18:00:00Z,25.1800,-80.4900,1.5,38.85,1111122 
ENP,ioos.station.NOAA.NDBC:DKKF1:1,2017-09-05T19:00:00Z,25.1800,-80.4900,1.5,38.9,11111222 
ENP,ioos.station.NOAA.NDBC:DKKF1:1,2017-09-05T20:00:00Z,25.1800,-80.4900,1.5,38.96,1111122 
ENP,ioos.station.NOAA.NDBC:DKKF1:1,2017-09-05T21:00:00Z,25.1800,-80.4900,1.5,39.0,11111222 
ENP,ioos.station.NOAA.NDBC:DKKF1:1,2017-09-05T22:00:00Z,25.1800,-80.4900,1.5,39.1,11111222 
ENP,ioos.station.NOAA.NDBC:DKKF1:1,2017-09-05T23:00:00Z,25.1800,-80.4900,1.5,39.09,1111122 
ENP,ioos.station.NOAA.NDBC:DKKF1:1,2017-09-06T00:00:00Z,25.1800,-80.4900,1.5,39.1,11111222 
ENP,ioos.station.NOAA.NDBC:DKKF1:1,2017-09-06T03:00:00Z,25.1800,-80.4900,1.5,39.2,11111222 
ENP,ioos.station.NOAA.NDBC:DKKF1:1,2017-09-06T06:00:00Z,25.1800,-80.4900,1.5,39.2,11111222 
ENP,ioos.station.NOAA.NDBC:DKKF1:1,2017-09-06T07:00:00Z,25.1800,-80.4900,1.5,39.2,11111222 
ENP,ioos.station.NOAA.NDBC:DKKF1:1,2017-09-06T08:00:00Z,25.1800,-80.4900,1.5,39.2,11111222 
ENP,ioos.station.NOAA.NDBC:DKKF1:1,2017-09-06T10:00:00Z,25.1800,-80.4900,1.5,39.13,1111122 
ENP,ioos.station.NOAA.NDBC:DKKF1:1,2017-09-06T11:00:00Z,25.1800,-80.4900,1.5,39.1,11111222 
ENP,ioos.station.NOAA.NDBC:DKKF1:1,2017-09-18T17:00:00Z,25.1800,-80.4900,1.5,31.4,11111222 
ENP,ioos.station.NOAA.NDBC:DKKF1:1,2017-09-18T18:00:00Z,25.1800,-80.4900,1.5,31.4,11111222 
ENP,ioos.station.NOAA.NDBC:DKKF1:1,2017-09-18T19:00:00Z,25.1800,-80.4900,1.5,31.5,11111222 
ENP,ioos.station.NOAA.NDBC:DKKF1:1,2017-09-18T20:00:00Z,25.1800,-80.4900,1.5,30.3,11111222 
ENP,ioos.station.NOAA.NDBC:DKKF1:1,2017-09-18T21:00:00Z,25.1800,-80.4900,1.5,30.1,11111222 
ENP,ioos.station.NOAA.NDBC:DKKF1:1,2017-09-18T22:00:00Z,25.1800,-80.4900,1.5,30.5,11111222 
ENP,ioos.station.NOAA.NDBC:DKKF1:1,2017-09-18T23:00:00Z,25.1800,-80.4900,1.5,29.6,11111222 
ENP,ioos.station.NOAA.NDBC:DKKF1:1,2017-09-19T00:00:00Z,25.1800,-80.4900,1.5,28.9,11111222 
ENP,ioos.station.NOAA.NDBC:DKKF1:1,2017-09-19T02:00:00Z,25.1800,-80.4900,1.5,27.8,11111222 
ENP,ioos.station.NOAA.NDBC:DKKF1:1,2017-09-19T03:00:00Z,25.1800,-80.4900,1.5,28.0,11111222 
ENP,ioos.station.NOAA.NDBC:DKKF1:1,2017-09-19T05:00:00Z,25.1800,-80.4900,1.5,26.6,11111222 
ENP,ioos.station.NOAA.NDBC:DKKF1:1,2017-09-19T06:00:00Z,25.1800,-80.4900,1.5,26.5,11111222 
ENP,ioos.station.NOAA.NDBC:DKKF1:1,2017-09-19T07:00:00Z,25.1800,-80.4900,1.5,27.51,1111122 
ENP,ioos.station.NOAA.NDBC:DKKF1:1,2017-09-19T08:00:00Z,25.1800,-80.4900,1.5,28.02,1111122 
ENP,ioos.station.NOAA.NDBC:DKKF1:1,2017-09-19T10:00:00Z,25.1800,-80.4900,1.5,28.2,11111222 
ENP,ioos.station.NOAA.NDBC:DKKF1:1,2017-09-19T11:00:00Z,25.1800,-80.4900,1.5,28.0,11111222 
ENP,ioos.station.NOAA.NDBC:DKKF1:1,2017-09-19T12:00:00Z,25.1800,-80.4900,1.5,27.4,11111222 
ENP,ioos.station.NOAA.NDBC:DKKF1:1,2017-09-19T13:00:00Z,25.1800,-80.4900,1.5,27.3,11111222 
ENP,ioos.station.NOAA.NDBC:DKKF1:1,2017-09-19T14:00:00Z,25.1800,-80.4900,1.5,27.3,11111222 
ENP,ioos.station.NOAA.NDBC:DKKF1:1,2017-09-19T15:00:00Z,25.1800,-80.4900,1.5,27.4,11111222 
ENP,ioos.station.NOAA.NDBC:DKKF1:1,2017-09-19T16:00:00Z,25.1800,-80.4900,1.5,27.36,1111122 
ENP,ioos.station.NOAA.NDBC:DKKF1:1,2017-09-19T17:00:00Z,25.1800,-80.4900,1.5,27.89,1111122 
ENP,ioos.station.NOAA.NDBC:DKKF1:1,2017-09-19T18:00:00Z,25.1800,-80.4900,1.5,28.74,1111122 
ENP,ioos.station.NOAA.NDBC:DKKF1:1,2017-09-19T19:00:00Z,25.1800,-80.4900,1.5,29.16,1111122 
ENP,ioos.station.NOAA.NDBC:DKKF1:1,2017-09-19T20:00:00Z,25.1800,-80.4900,1.5,31.14,1111122 
ENP,ioos.station.NOAA.NDBC:DKKF1:1,2017-09-19T21:00:00Z,25.1800,-80.4900,1.5,31.7,1111122 
ENP,ioos.station.NOAA.NDBC:DKKF1:1,2017-09-19T22:00:00Z,25.1800,-80.4900,1.5,30.35,1111122 
ENP,ioos.station.NOAA.NDBC:DKKF1:1,2017-09-19T23:00:00Z,25.1800,-80.4900,1.5,30.1,11111222 
ENP,ioos.station.NOAA.NDBC:DKKF1:1,2017-09-20T00:00:00Z,25.1800,-80.4900,1.5,30.2,11111222 
ENP,ioos.station.NOAA.NDBC:DKKF1:1,2017-09-20T02:00:00Z,25.1800,-80.4900,1.5,27.57,1111122 
ENP,ioos.station.NOAA.NDBC:DKKF1:1,2017-09-20T03:00:00Z,25.1800,-80.4900,1.5,26.7,11111222 
ENP,ioos.station.NOAA.NDBC:DKKF1:1,2017-09-20T05:00:00Z,25.1800,-80.4900,1.5,26.38,1111122 
ENP,ioos.station.NOAA.NDBC:DKKF1:1,2017-09-20T06:00:00Z,25.1800,-80.4900,1.5,26.4,11111222 
ENP,ioos.station.NOAA.NDBC:DKKF1:1,2017-09-20T07:00:00Z,25.1800,-80.4900,1.5,26.4,11111222 
ENP,ioos.station.NOAA.NDBC:DKKF1:1,2017-09-20T08:00:00Z,25.1800,-80.4900,1.5,26.29,1111122 
ENP,ioos.station.NOAA.NDBC:DKKF1:1,2017-09-20T10:00:00Z,25.1800,-80.4900,1.5,26.3,1111122 
ENP,ioos.station.NOAA.NDBC:DKKF1:1,2017-09-20T11:00:00Z,25.1800,-80.4900,1.5,26.3,11111222 
ENP,ioos.station.NOAA.NDBC:DKKF1:1,2017-09-20T12:00:00Z,25.1800,-80.4900,1.5,26.3,11111222 
ENP,ioos.station.NOAA.NDBC:DKKF1:1,2017-09-20T13:00:00Z,25.1800,-80.4900,1.5,26.3,11111222 
ENP,ioos.station.NOAA.NDBC:DKKF1:1,2017-09-20T14:00:00Z,25.1800,-80.4900,1.5,26.3,11111222 
ENP,ioos.station.NOAA.NDBC:DKKF1:1,2017-09-20T15:00:00Z,25.1800,-80.4900,1.5,26.3,11111222 
ENP,ioos.station.NOAA.NDBC:DKKF1:1,2017-09-20T16:00:00Z,25.1800,-80.4900,1.5,26.6,1111122 
ENP,ioos.station.NOAA.NDBC:DKKF1:1,2017-09-20T17:00:00Z,25.1800,-80.4900,1.5,26.73,1111122 
ENP,ioos.station.NOAA.NDBC:DKKF1:1,2017-09-20T18:00:00Z,25.1800,-80.4900,1.5,26.86,1111122 
ENP,ioos.station.NOAA.NDBC:DKKF1:1,2017-09-20T19:00:00Z,25.1800,-80.4900,1.5,26.81,1111122 
ENP,ioos.station.NOAA.NDBC:DKKF1:1,2017-09-20T20:00:00Z,25.1800,-80.4900,1.5,26.58,1111122 
ENP,ioos.station.NOAA.NDBC:DKKF1:1,2017-09-20T21:00:00Z,25.1800,-80.4900,1.5,26.4,1111122 
ENP,ioos.station.NOAA.NDBC:DKKF1:1,2017-09-20T22:00:00Z,25.1800,-80.4900,1.5,26.34,1111122 
ENP,ioos.station.NOAA.NDBC:DKKF1:1,2017-09-20T23:00:00Z,25.1800,-80.4900,1.5,26.3,1111122 
ENP,ioos.station.NOAA.NDBC:DKKF1:1,2017-09-21T00:00:00Z,25.1800,-80.4900,1.5,26.33,1111122 
ENP,ioos.station.NOAA.NDBC:DKKF1:1,2017-09-21T02:00:00Z,25.1800,-80.4900,1.5,26.35,1111122 
ENP,ioos.station.NOAA.NDBC:DKKF1:1,2017-09-21T03:00:00Z,25.1800,-80.4900,1.5,26.4,1111122 
ENP,ioos.station.NOAA.NDBC:DKKF1:1,2017-09-21T05:00:00Z,25.1800,-80.4900,1.5,27.05,1111122 
ENP,ioos.station.NOAA.NDBC:DKKF1:1,2017-09-21T06:00:00Z,25.1800,-80.4900,1.5,27.37,1111122 
ENP,ioos.station.NOAA.NDBC:DKKF1:1,2017-09-21T07:00:00Z,25.1800,-80.4900,1.5,27.1,1111122 
ENP,ioos.station.NOAA.NDBC:DKKF1:1,2017-09-21T08:00:00Z,25.1800,-80.4900,1.5,27.06,1111122 
ENP,ioos.station.NOAA.NDBC:DKKF1:1,2017-09-21T10:00:00Z,25.1800,-80.4900,1.5,26.67,1111122 
ENP,ioos.station.NOAA.NDBC:DKKF1:1,2017-09-21T11:00:00Z,25.1800,-80.4900,1.5,26.68,1111122 
ENP,ioos.station.NOAA.NDBC:DKKF1:1,2017-09-21T12:00:00Z,25.1800,-80.4900,1.5,26.68,1111122 
ENP,ioos.station.NOAA.NDBC:DKKF1:1,2017-09-21T13:00:00Z,25.1800,-80.4900,1.5,26.68,1111122 
ENP,ioos.station.NOAA.NDBC:DKKF1:1,2017-09-21T14:00:00Z,25.1800,-80.4900,1.5,26.7,1111122 
ENP,ioos.station.NOAA.NDBC:DKKF1:1,2017-09-21T15:00:00Z,25.1800,-80.4900,1.5,26.79,1111122 
ENP,ioos.station.NOAA.NDBC:DKKF1:1,2017-09-21T16:00:00Z,25.1800,-80.4900,1.5,26.92,1111122 
ENP,ioos.station.NOAA.NDBC:DKKF1:1,2017-09-21T17:00:00Z,25.1800,-80.4900,1.5,27.11,1111122 
ENP,ioos.station.NOAA.NDBC:DKKF1:1,2017-09-21T18:00:00Z,25.1800,-80.4900,1.5,27.24,1111122 
ENP,ioos.station.NOAA.NDBC:DKKF1:1,2017-09-21T19:00:00Z,25.1800,-80.4900,1.5,27.25,1111122 
ENP,ioos.station.NOAA.NDBC:DKKF1:1,2017-09-21T20:00:00Z,25.1800,-80.4900,1.5,27.99,1111122 
ENP,ioos.station.NOAA.NDBC:DKKF1:1,2017-09-21T21:00:00Z,25.1800,-80.4900,1.5,28.44,1111122 
ENP,ioos.station.NOAA.NDBC:DKKF1:1,2017-09-21T22:00:00Z,25.1800,-80.4900,1.5,28.02,1111122 
ENP,ioos.station.NOAA.NDBC:DKKF1:1,2017-09-21T23:00:00Z,25.1800,-80.4900,1.5,28.02,1111122 
ENP,ioos.station.NOAA.NDBC:DKKF1:1,2017-09-22T00:00:00Z,25.1800,-80.4900,1.5,28.03,1111122 
ENP,ioos.station.NOAA.NDBC:DKKF1:1,2017-09-22T02:00:00Z,25.1800,-80.4900,1.5,28.12,1111122 
ENP,ioos.station.NOAA.NDBC:DKKF1:1,2017-09-22T03:00:00Z,25.1800,-80.4900,1.5,28.09,1111122 
ENP,ioos.station.NOAA.NDBC:DKKF1:1,2017-09-22T05:00:00Z,25.1800,-80.4900,1.5,28.03,1111122 
ENP,ioos.station.NOAA.NDBC:DKKF1:1,2017-09-22T06:00:00Z,25.1800,-80.4900,1.5,28.06,1111122 
ENP,ioos.station.NOAA.NDBC:DKKF1:1,2017-09-22T07:00:00Z,25.1800,-80.4900,1.5,28.1,1111122 
ENP,ioos.station.NOAA.NDBC:DKKF1:1,2017-09-22T08:00:00Z,25.1800,-80.4900,1.5,28.17,1111122 
ENP,ioos.station.NOAA.NDBC:DKKF1:1,2017-09-22T10:00:00Z,25.1800,-80.4900,1.5,28.1,1111122 
ENP,ioos.station.NOAA.NDBC:DKKF1:1,2017-09-22T11:00:00Z,25.1800,-80.4900,1.5,28.07,1111122 
ENP,ioos.station.NOAA.NDBC:DKKF1:1,2017-09-22T12:00:00Z,25.1800,-80.4900,1.5,28.07,1111122 
ENP,ioos.station.NOAA.NDBC:DKKF1:1,2017-09-22T13:00:00Z,25.1800,-80.4900,1.5,28.0,1111122 
ENP,ioos.station.NOAA.NDBC:DKKF1:1,2017-09-22T14:00:00Z,25.1800,-80.4900,1.5,28.07,1111122 
ENP,ioos.station.NOAA.NDBC:DKKF1:1,2017-09-22T15:00:00Z,25.1800,-80.4900,1.5,28.18,1111122 
ENP,ioos.station.NOAA.NDBC:DKKF1:1,2017-09-22T16:00:00Z,25.1800,-80.4900,1.5,28.26,1111122 
ENP,ioos.station.NOAA.NDBC:DKKF1:1,2017-09-22T17:00:00Z,25.1800,-80.4900,1.5,28.04,1111122 
ENP,ioos.station.NOAA.NDBC:DKKF1:1,2017-09-22T18:00:00Z,25.1800,-80.4900,1.5,28.0,1111122 
ENP,ioos.station.NOAA.NDBC:DKKF1:1,2017-09-22T19:00:00Z,25.1800,-80.4900,1.5,28.01,1111122 
ENP,ioos.station.NOAA.NDBC:DKKF1:1,2017-09-22T20:00:00Z,25.1800,-80.4900,1.5,28.52,1111122 
ENP,ioos.station.NOAA.NDBC:DKKF1:1,2017-09-22T21:00:00Z,25.1800,-80.4900,1.5,28.7,1111122 
ENP,ioos.station.NOAA.NDBC:DKKF1:1,2017-09-22T22:00:00Z,25.1800,-80.4900,1.5,28.33,1111122 
ENP,ioos.station.NOAA.NDBC:DKKF1:1,2017-09-22T23:00:00Z,25.1800,-80.4900,1.5,28.22,1111122 
ENP,ioos.station.NOAA.NDBC:DKKF1:1,2017-09-23T00:00:00Z,25.1800,-80.4900,1.5,28.23,1111122 
ENP,ioos.station.NOAA.NDBC:DKKF1:1,2017-09-23T02:00:00Z,25.1800,-80.4900,1.5,28.37,1111122 
ENP,ioos.station.NOAA.NDBC:DKKF1:1,2017-09-23T03:00:00Z,25.1800,-80.4900,1.5,28.4,1111122 
ENP,ioos.station.NOAA.NDBC:DKKF1:1,2017-09-23T05:00:00Z,25.1800,-80.4900,1.5,28.42,1111122 
ENP,ioos.station.NOAA.NDBC:DKKF1:1,2017-09-23T06:00:00Z,25.1800,-80.4900,1.5,28.43,1111122 
ENP,ioos.station.NOAA.NDBC:DKKF1:1,2017-09-23T07:00:00Z,25.1800,-80.4900,1.5,28.42,1111122 
ENP,ioos.station.NOAA.NDBC:DKKF1:1,2017-09-23T08:00:00Z,25.1800,-80.4900,1.5,28.41,1111122 
ENP,ioos.station.NOAA.NDBC:DKKF1:1,2017-09-23T10:00:00Z,25.1800,-80.4900,1.5,28.41,1111122 
ENP,ioos.station.NOAA.NDBC:DKKF1:1,2017-09-23T11:00:00Z,25.1800,-80.4900,1.5,28.31,1111122 
ENP,ioos.station.NOAA.NDBC:DKKF1:1,2017-09-23T12:00:00Z,25.1800,-80.4900,1.5,28.16,1111122 
ENP,ioos.station.NOAA.NDBC:DKKF1:1,2017-09-23T13:00:00Z,25.1800,-80.4900,1.5,28.18,1111122 
ENP,ioos.station.NOAA.NDBC:DKKF1:1,2017-09-23T14:00:00Z,25.1800,-80.4900,1.5,28.2,1111122 
ENP,ioos.station.NOAA.NDBC:DKKF1:1,2017-09-23T15:00:00Z,25.1800,-80.4900,1.5,28.23,1111122 
ENP,ioos.station.NOAA.NDBC:DKKF1:1,2017-09-23T16:00:00Z,25.1800,-80.4900,1.5,28.16,1111122 
ENP,ioos.station.NOAA.NDBC:DKKF1:1,2017-09-23T17:00:00Z,25.1800,-80.4900,1.5,28.09,1111122 
ENP,ioos.station.NOAA.NDBC:DKKF1:1,2017-09-23T18:00:00Z,25.1800,-80.4900,1.5,28.11,1111122 
ENP,ioos.station.NOAA.NDBC:DKKF1:1,2017-09-23T19:00:00Z,25.1800,-80.4900,1.5,28.13,1111122 
ENP,ioos.station.NOAA.NDBC:DKKF1:1,2017-09-23T20:00:00Z,25.1800,-80.4900,1.5,28.12,1111122 
ENP,ioos.station.NOAA.NDBC:DKKF1:1,2017-09-23T21:00:00Z,25.1800,-80.4900,1.5,28.13,1111122 
ENP,ioos.station.NOAA.NDBC:DKKF1:1,2017-09-23T22:00:00Z,25.1800,-80.4900,1.5,28.19,1111122 
ENP,ioos.station.NOAA.NDBC:DKKF1:1,2017-09-23T23:00:00Z,25.1800,-80.4900,1.5,28.33,1111122 
ENP,ioos.station.NOAA.NDBC:DKKF1:1,2017-09-24T00:00:00Z,25.1800,-80.4900,1.5,28.85,1111122 
ENP,ioos.station.NOAA.NDBC:DKKF1:1,2017-09-24T02:00:00Z,25.1800,-80.4900,1.5,28.28,1111122 
ENP,ioos.station.NOAA.NDBC:DKKF1:1,2017-09-24T03:00:00Z,25.1800,-80.4900,1.5,28.12,1111122 
ENP,ioos.station.NOAA.NDBC:DKKF1:1,2017-09-24T05:00:00Z,25.1800,-80.4900,1.5,28.12,1111122 
ENP,ioos.station.NOAA.NDBC:DKKF1:1,2017-09-24T06:00:00Z,25.1800,-80.4900,1.5,28.16,1111122 
ENP,ioos.station.NOAA.NDBC:DKKF1:1,2017-09-24T07:00:00Z,25.1800,-80.4900,1.5,28.37,1111122 
ENP,ioos.station.NOAA.NDBC:DKKF1:1,2017-09-24T08:00:00Z,25.1800,-80.4900,1.5,28.71,1111122 
ENP,ioos.station.NOAA.NDBC:DKKF1:1,2017-09-24T10:00:00Z,25.1800,-80.4900,1.5,29.01,1111122 
ENP,ioos.station.NOAA.NDBC:DKKF1:1,2017-09-24T11:00:00Z,25.1800,-80.4900,1.5,29.0,1111122 
ENP,ioos.station.NOAA.NDBC:DKKF1:1,2017-09-24T12:00:00Z,25.1800,-80.4900,1.5,29.08,1111122 
ENP,ioos.station.NOAA.NDBC:DKKF1:1,2017-09-24T13:00:00Z,25.1800,-80.4900,1.5,29.14,1111122 
ENP,ioos.station.NOAA.NDBC:DKKF1:1,2017-09-24T14:00:00Z,25.1800,-80.4900,1.5,29.18,1111122 
ENP,ioos.station.NOAA.NDBC:DKKF1:1,2017-09-24T15:00:00Z,25.1800,-80.4900,1.5,29.01,1111122 
ENP,ioos.station.NOAA.NDBC:DKKF1:1,2017-09-24T16:00:00Z,25.1800,-80.4900,1.5,28.85,1111122 
ENP,ioos.station.NOAA.NDBC:DKKF1:1,2017-09-24T17:00:00Z,25.1800,-80.4900,1.5,29.03,1111122 
ENP,ioos.station.NOAA.NDBC:DKKF1:1,2017-09-24T18:00:00Z,25.1800,-80.4900,1.5,29.03,1111122 
ENP,ioos.station.NOAA.NDBC:DKKF1:1,2017-09-24T19:00:00Z,25.1800,-80.4900,1.5,28.93,1111122 
ENP,ioos.station.NOAA.NDBC:DKKF1:1,2017-09-24T20:00:00Z,25.1800,-80.4900,1.5,28.78,1111122 
ENP,ioos.station.NOAA.NDBC:DKKF1:1,2017-09-24T21:00:00Z,25.1800,-80.4900,1.5,29.16,1111122 
ENP,ioos.station.NOAA.NDBC:DKKF1:1,2017-09-24T22:00:00Z,25.1800,-80.4900,1.5,28.29,1111122 
ENP,ioos.station.NOAA.NDBC:DKKF1:1,2017-09-24T23:00:00Z,25.1800,-80.4900,1.5,28.28,1111122 
ENP,ioos.station.NOAA.NDBC:DKKF1:1,2017-09-25T00:00:00Z,25.1800,-80.4900,1.5,28.3,1111122 
ENP,ioos.station.NOAA.NDBC:DKKF1:1,2017-09-25T02:00:00Z,25.1800,-80.4900,1.5,28.33,1111122 
ENP,ioos.station.NOAA.NDBC:DKKF1:1,2017-09-25T03:00:00Z,25.1800,-80.4900,1.5,28.34,1111122 
ENP,ioos.station.NOAA.NDBC:DKKF1:1,2017-09-25T05:00:00Z,25.1800,-80.4900,1.5,28.33,1111122 
ENP,ioos.station.NOAA.NDBC:DKKF1:1,2017-09-25T06:00:00Z,25.1800,-80.4900,1.5,28.27,1111122 
ENP,ioos.station.NOAA.NDBC:DKKF1:1,2017-09-25T07:00:00Z,25.1800,-80.4900,1.5,28.17,1111122 
ENP,ioos.station.NOAA.NDBC:DKKF1:1,2017-09-25T08:00:00Z,25.1800,-80.4900,1.5,28.14,1111122 
ENP,ioos.station.NOAA.NDBC:DKKF1:1,2017-09-25T10:00:00Z,25.1800,-80.4900,1.5,28.14,1111122 
ENP,ioos.station.NOAA.NDBC:DKKF1:1,2017-09-25T11:00:00Z,25.1800,-80.4900,1.5,28.13,1111122 
ENP,ioos.station.NOAA.NDBC:DKKF1:1,2017-09-25T12:00:00Z,25.1800,-80.4900,1.5,28.14,1111122 
ENP,ioos.station.NOAA.NDBC:DKKF1:1,2017-09-25T13:00:00Z,25.1800,-80.4900,1.5,28.14,1111122 
ENP,ioos.station.NOAA.NDBC:DKKF1:1,2017-09-25T14:00:00Z,25.1800,-80.4900,1.5,28.13,1111122 
ENP,ioos.station.NOAA.NDBC:DKKF1:1,2017-09-25T15:00:00Z,25.1800,-80.4900,1.5,28.15,1111122 
ENP,ioos.station.NOAA.NDBC:DKKF1:1,2017-09-25T16:00:00Z,25.1800,-80.4900,1.5,28.13,1111122 
ENP,ioos.station.NOAA.NDBC:DKKF1:1,2017-09-25T17:00:00Z,25.1800,-80.4900,1.5,28.12,1111122 
ENP,ioos.station.NOAA.NDBC:DKKF1:1,2017-09-25T18:00:00Z,25.1800,-80.4900,1.5,28.32,1111122 
ENP,ioos.station.NOAA.NDBC:DKKF1:1,2017-09-25T19:00:00Z,25.1800,-80.4900,1.5,28.37,1111122 
ENP,ioos.station.NOAA.NDBC:DKKF1:1,2017-09-25T20:00:00Z,25.1800,-80.4900,1.5,28.64,1111122 
ENP,ioos.station.NOAA.NDBC:DKKF1:1,2017-09-25T21:00:00Z,25.1800,-80.4900,1.5,28.39,1111122 
ENP,ioos.station.NOAA.NDBC:DKKF1:1,2017-09-25T22:00:00Z,25.1800,-80.4900,1.5,28.54,1111122 
ENP,ioos.station.NOAA.NDBC:DKKF1:1,2017-09-25T23:00:00Z,25.1800,-80.4900,1.5,28.39,1111122 
ENP,ioos.station.NOAA.NDBC:DKKF1:1,2017-09-26T00:00:00Z,25.1800,-80.4900,1.5,29.22,1111122 
ENP,ioos.station.NOAA.NDBC:DKKF1:1,2017-09-26T02:00:00Z,25.1800,-80.4900,1.5,29.75,1111122 
ENP,ioos.station.NOAA.NDBC:DKKF1:1,2017-09-26T03:00:00Z,25.1800,-80.4900,1.5,29.69,1111122 
ENP,ioos.station.NOAA.NDBC:DKKF1:1,2017-09-26T05:00:00Z,25.1800,-80.4900,1.5,29.03,1111122 
ENP,ioos.station.NOAA.NDBC:DKKF1:1,2017-09-26T06:00:00Z,25.1800,-80.4900,1.5,29.03,1111122 
ENP,ioos.station.NOAA.NDBC:DKKF1:1,2017-09-26T07:00:00Z,25.1800,-80.4900,1.5,28.72,1111122 